Location: Daerah Kuala Lumpur
(3.1167°N, 101.6833°E)
Time: 10:18:18
(UTC+00:00)

SL-08 RB Rocket - Pass Details

Date: 05 August 2024
Orbit: 638 x 674 km, 97.8° (Epoch: 14 September)

Event Time Altitude Azimuth Distance (km) Brightness Sun altitude
Rises 22:12:33 0° 2° (N) 2,999 7.4 -15.0°
Reaches altitude 10° 22:14:50 10° 357° (N) 2,083 6.4 -14.5°
Maximum altitude 22:19:14 51° 282° (WNW) 836 3.9 -13.4°
Drops below altitude 10° 22:23:37 10° 206° (SSW) 2,067 5.8 -12.4°
Enters shadow 22:24:41 - 203° (SSW) 2,488 6.3 -12.1°
